Torna al catalogo

ONEWEB-0428

AttivoComunicazioniPO
NORAD 51629·PAYLOAD·🇬🇧 United Kingdom

Lanciato Feb 10, 2022 da Guiana Space Centre

Loading…

Prossimi Passaggi (prossime 24 ore)

TLE

AggiornatoSource: CelesTrak SupGP

Epoca: Sep 14, 2026, 23:37 UTC

1 51629C 22012H   26257.98454120 -.00001886  00000+0 -54110-2 0  2579
2 51629  87.8890  18.3923 0001741 102.4654   9.6700 13.10368574    17

Traccia ONEWEB-0428 in tempo reale con AllMySat

Download on the App Store